• In Spain
  • List of Countries
  • For 7 days
  • Water Temperature
  • Satellite Maps
  • Weather Map
  • Weather Widgets
  • user-avatar
    Login

    Hourly Weather Resht

    Today, 19 September, Wednesday

    Time Temperature Precipitation Wind Pressure Humidity
    00:00 +25°C° 0.1 mm 1 mps 763 mmHg 89%
    01:00 +24°C° 0.2 mm 1 mps 763 mmHg 89%
    02:00 +24°C° 0.2 mm 2 mps 763 mmHg 89%
    03:00 +25°C° 0 mm 2 mps 762 mmHg 88%
    04:00 +25°C° 0.3 mm 2 mps 763 mmHg 89%
    05:00 +25°C° 0.3 mm 2 mps 763 mmHg 89%
    06:00 +25°C° 0.3 mm 2 mps 763 mmHg 89%
    07:00 +26°C° 0.4 mm 2 mps 763 mmHg 86%
    08:00 +26°C° 0.4 mm 2 mps 763 mmHg 83%
    09:00 +27°C° 0 mm 3 mps 763 mmHg 85%
    10:00 +27°C° 1.3 mm 3 mps 763 mmHg 85%
    11:00 +27°C° 1.3 mm 4 mps 763 mmHg 85%
    12:00 +27°C° 1.3 mm 4 mps 763 mmHg 85%
    13:00 +26°C° 0.7 mm 4 mps 763 mmHg 87%
    14:00 +26°C° 0.7 mm 4 mps 763 mmHg 89%
    15:00 +25°C° 0 mm 4 mps 763 mmHg 95%
    16:00 +24°C° 1.1 mm 3 mps 763 mmHg 94%
    17:00 +24°C° 1.1 mm 3 mps 763 mmHg 94%
    18:00 +24°C° 1.1 mm 3 mps 763 mmHg 94%
    19:00 +24°C° 0.7 mm 2 mps 764 mmHg 94%
    20:00 +24°C° 0.7 mm 2 mps 764 mmHg 94%
    21:00 +23°C° 0.7 mm 2 mps 764 mmHg 94%
    22:00 +23°C° 0.2 mm 2 mps 764 mmHg 94%
    23:00 +23°C° 0.2 mm 1 mps 764 mmHg 94%

    Tomorrow, 20 September, Thursday

    Time Temperature Precipitation Wind Pressure Humidity
    00:00 +23°C° 0.2 mm 1 mps 764 mmHg 94%
    01:00 +23°C° 0.4 mm 1 mps 764 mmHg 94%
    02:00 +23°C° 0.4 mm 1 mps 764 mmHg 94%
    03:00 +23°C° 0.4 mm 1 mps 764 mmHg 94%
    04:00 +23°C° 0.3 mm 1 mps 765 mmHg 94%
    05:00 +23°C° 0.3 mm 1 mps 765 mmHg 94%
    06:00 +23°C° 0.3 mm 2 mps 765 mmHg 95%
    07:00 +23°C° 0.4 mm 2 mps 765 mmHg 92%
    08:00 +24°C° 0.4 mm 2 mps 765 mmHg 90%
    09:00 +24°C° 0.4 mm 2 mps 765 mmHg 87%
    10:00 +25°C° 0.3 mm 2 mps 765 mmHg 85%
    11:00 +25°C° 0.3 mm 2 mps 765 mmHg 84%
    12:00 +25°C° 0.3 mm 3 mps 765 mmHg 82%
    13:00 +25°C° 0.1 mm 2 mps 764 mmHg 84%
    14:00 +25°C° 0.1 mm 2 mps 764 mmHg 85%
    15:00 +24°C° 0.1 mm 2 mps 764 mmHg 87%
    16:00 +24°C° 0 mm 2 mps 764 mmHg 89%
    17:00 +23°C° 0 mm 2 mps 764 mmHg 90%
    18:00 +23°C° 0 mm 2 mps 764 mmHg 92%
    19:00 +23°C° 0 mm 2 mps 764 mmHg 92%
    20:00 +23°C° 0 mm 2 mps 765 mmHg 92%
    21:00 +23°C° 0 mm 2 mps 765 mmHg 92%
    22:00 +22°C° 0 mm 1 mps 765 mmHg 92%
    23:00 +22°C° 0 mm 1 mps 765 mmHg 92%

    Day after tomorrow, 21 September, Friday

    Time Temperature Precipitation Wind Pressure Humidity
    00:00 +22°C° 0 mm 1 mps 765 mmHg 91%
    01:00 +22°C° 0.1 mm 1 mps 765 mmHg 91%
    02:00 +22°C° 0.1 mm 1 mps 765 mmHg 91%
    03:00 +22°C° 0.1 mm 1 mps 764 mmHg 90%
    04:00 +22°C° 0.1 mm 1 mps 764 mmHg 90%
    05:00 +22°C° 0.1 mm 1 mps 764 mmHg 90%
    06:00 +22°C° 0.1 mm 1 mps 764 mmHg 90%
    07:00 +24°C° 0 mm 1 mps 764 mmHg 82%
    08:00 +25°C° 0 mm 1 mps 764 mmHg 74%
    09:00 +27°C° 0 mm 1 mps 764 mmHg 66%
    10:00 +28°C° 0 mm 2 mps 764 mmHg 63%
    11:00 +29°C° 0 mm 2 mps 764 mmHg 60%
    12:00 +30°C° 0 mm 3 mps 763 mmHg 57%
    13:00 +30°C° 0 mm 3 mps 763 mmHg 60%
    14:00 +29°C° 0 mm 3 mps 762 mmHg 63%
    15:00 +29°C° 0 mm 3 mps 762 mmHg 66%
    16:00 +28°C° 0 mm 3 mps 762 mmHg 72%
    17:00 +27°C° 0 mm 3 mps 762 mmHg 78%
    18:00 +25°C° 0 mm 3 mps 762 mmHg 84%
    19:00 +25°C° 0 mm 2 mps 762 mmHg 85%
    20:00 +25°C° 0 mm 2 mps 763 mmHg 86%
    21:00 +24°C° 0 mm 1 mps 763 mmHg 87%
    22:00 +24°C° 0.2 mm 1 mps 763 mmHg 88%
    23:00 +24°C° 0.2 mm 1 mps 763 mmHg 89%

    22 September, Saturday

    Time Temperature Precipitation Wind Pressure Humidity
    00:00 +24°C° 0.2 mm 1 mps 763 mmHg 90%
    01:00 +23°C° 0.1 mm 1 mps 763 mmHg 90%
    02:00 +23°C° 0.1 mm 1 mps 763 mmHg 91%
    03:00 +23°C° 0.1 mm 1 mps 763 mmHg 91%
    04:00 +23°C° 0 mm 1 mps 763 mmHg 91%
    05:00 +23°C° 0 mm 1 mps 764 mmHg 90%
    06:00 +23°C° 0 mm 1 mps 764 mmHg 90%
    07:00 +25°C° 0 mm 1 mps 764 mmHg 82%
    08:00 +26°C° 0 mm 1 mps 764 mmHg 74%
    09:00 +28°C° 0 mm 2 mps 764 mmHg 66%
    10:00 +29°C° 0 mm 2 mps 763 mmHg 63%
    11:00 +30°C° 0 mm 2 mps 763 mmHg 60%
    12:00 +31°C° 0 mm 3 mps 763 mmHg 57%
    13:00 +30°C° 0 mm 3 mps 762 mmHg 60%
    14:00 +30°C° 0 mm 3 mps 762 mmHg 63%
    15:00 +29°C° 0 mm 3 mps 761 mmHg 67%
    16:00 +28°C° 0.1 mm 3 mps 761 mmHg 72%
    17:00 +27°C° 0.1 mm 2 mps 762 mmHg 78%
    18:00 +25°C° 0.1 mm 2 mps 762 mmHg 84%
    19:00 +25°C° 0.8 mm 2 mps 762 mmHg 86%
    20:00 +25°C° 0.8 mm 2 mps 763 mmHg 87%
    21:00 +24°C° 0.8 mm 2 mps 763 mmHg 88%
    22:00 +24°C° 0.2 mm 2 mps 763 mmHg 89%
    23:00 +24°C° 0.2 mm 2 mps 763 mmHg 89%

    23 September, Sunday

    Time Temperature Precipitation Wind Pressure Humidity
    00:00 +24°C° 0.2 mm 1 mps 763 mmHg 89%
    01:00 +24°C° 0.1 mm 1 mps 763 mmHg 89%
    02:00 +23°C° 0.1 mm 1 mps 763 mmHg 90%
    03:00 +23°C° 0.1 mm 1 mps 763 mmHg 90%
    04:00 +23°C° 0 mm 1 mps 763 mmHg 90%
    05:00 +23°C° 0 mm 1 mps 763 mmHg 90%
    06:00 +23°C° 0 mm 1 mps 763 mmHg 90%
    07:00 +24°C° 0 mm 1 mps 763 mmHg 83%
    08:00 +26°C° 0 mm 2 mps 763 mmHg 77%
    09:00 +27°C° 0 mm 2 mps 763 mmHg 70%
    10:00 +28°C° 0 mm 2 mps 762 mmHg 66%
    11:00 +29°C° 0 mm 2 mps 762 mmHg 61%
    12:00 +31°C° 0 mm 3 mps 761 mmHg 57%
    13:00 +30°C° 0 mm 3 mps 761 mmHg 59%
    14:00 +30°C° 0 mm 3 mps 760 mmHg 61%
    15:00 +30°C° 0 mm 3 mps 759 mmHg 63%
    16:00 +28°C° 0.1 mm 2 mps 760 mmHg 68%
    17:00 +27°C° 0.1 mm 2 mps 760 mmHg 74%
    18:00 +25°C° 0.1 mm 1 mps 760 mmHg 79%
    19:00 +25°C° 0.3 mm 1 mps 760 mmHg 80%
    20:00 +25°C° 0.3 mm 1 mps 760 mmHg 80%
    21:00 +24°C° 0.3 mm 1 mps 761 mmHg 81%
    22:00 +24°C° 0.1 mm 1 mps 761 mmHg 80%
    23:00 +24°C° 0.1 mm 1 mps 760 mmHg 80%

    24 September, Monday

    Time Temperature Precipitation Wind Pressure Humidity
    00:00 +24°C° 0.1 mm 1 mps 760 mmHg 80%
    01:00 +24°C° 0 mm 1 mps 760 mmHg 81%
    02:00 +23°C° 0 mm 1 mps 760 mmHg 81%
    03:00 +23°C° 0 mm 1 mps 760 mmHg 82%
    04:00 +23°C° 0 mm 1 mps 760 mmHg 82%
    05:00 +23°C° 0 mm 1 mps 760 mmHg 82%
    06:00 +23°C° 0 mm 2 mps 761 mmHg 82%
    07:00 +25°C° 0.2 mm 2 mps 761 mmHg 73%
    08:00 +27°C° 0.2 mm 2 mps 761 mmHg 64%
    09:00 +28°C° 0.2 mm 3 mps 761 mmHg 55%
    10:00 +29°C° 0.3 mm 3 mps 761 mmHg 52%
    11:00 +30°C° 0.3 mm 3 mps 761 mmHg 49%
    12:00 +31°C° 0.3 mm 3 mps 761 mmHg 46%
    13:00 +31°C° 0.1 mm 3 mps 761 mmHg 46%
    14:00 +30°C° 0.1 mm 3 mps 760 mmHg 47%
    15:00 +30°C° 0.1 mm 3 mps 760 mmHg 47%
    16:00 +28°C° 0 mm 2 mps 761 mmHg 54%
    17:00 +27°C° 0 mm 2 mps 761 mmHg 60%
    18:00 +25°C° 0 mm 1 mps 762 mmHg 66%
    19:00 +24°C° 0 mm 1 mps 762 mmHg 66%
    20:00 +24°C° 0 mm 1 mps 762 mmHg 67%
    21:00 +24°C° 0 mm 1 mps 763 mmHg 68%
    22:00 +23°C° 0 mm 1 mps 763 mmHg 66%
    23:00 +23°C° 0 mm 2 mps 762 mmHg 64%
    Show more